GFSSE_sfc_thetae_273.txt.gz
Theta_e
322 330 341 346 346 346 345 345 345 344 342 342 341 341 341 340 340 339 339 339 338 339 339 340 340 344 340 338 339 341 342 342 343 342 341 341 339 338 337 337 336 335 338
325 328 337 342 345 345 345 345 344 343 343 343 345 344 344 343 343 342 341 341 340 338 338 338 338 340 342 342 341 339 340 342 341 341 342 342 342 340 338 337 336 334 339
320 324 328 337 341 341 342 343 344 344 344 344 344 344 344 345 344 344 343 342 341 340 340 339 336 338 342 342 341 338 340 342 340 340 340 334 334 341 340 338 337 337 337
318 319 323 333 335 336 337 338 339 340 340 340 341 341 342 342 342 343 343 343 343 343 343 342 339 337 340 341 341 339 339 340 339 337 333 333 332 339 342 340 338 337 337
314 317 321 328 329 330 330 330 332 332 332 334 336 336 335 335 335 336 339 341 341 342 342 343 343 340 341 342 341 341 341 341 339 335 329 328 326 332 341 341 339 337 338
311 313 319 323 324 324 325 325 325 325 324 324 323 323 325 326 326 327 329 330 333 335 338 339 341 341 341 341 342 341 341 340 338 331 327 328 331 335 339 341 340 339 338
305 308 311 318 319 320 320 320 320 319 319 319 319 319 319 319 319 319 319 321 322 324 326 329 333 335 337 339 340 340 340 338 333 329 328 326 326 335 338 341 341 338 336
302 305 308 315 316 316 317 317 317 317 317 316 316 315 315 315 315 315 316 318 318 319 320 321 321 324 329 333 336 337 338 335 333 329 327 325 327 334 335 340 341 340 338
300 301 303 307 312 314 313 313 313 313 312 312 313 313 314 314 314 314 313 314 316 317 318 318 318 319 320 321 324 329 330 332 331 330 328 325 329 334 336 340 340 339 339
298 299 299 302 305 303 304 313 312 311 310 310 311 314 315 313 315 313 313 312 314 315 315 316 317 317 317 317 318 321 324 327 329 330 329 328 332 334 335 340 339 340 339
297 297 298 298 299 301 301 304 310 312 312 314 311 312 308 304 304 306 311 314 313 313 314 315 315 315 316 315 316 317 319 324 327 330 330 330 333 335 336 339 340 339 339
294 296 297 297 298 299 302 300 301 304 303 303 303 302 303 302 304 307 306 312 311 312 312 313 313 314 310 304 304 309 308 312 314 321 330 331 334 336 337 339 339 339 339
294 295 297 296 296 297 298 298 299 299 299 301 300 301 302 302 301 301 300 300 301 306 302 304 303 303 303 302 303 302 303 302 305 311 316 325 332 336 337 339 338 338 338
294 295 296 297 296 297 297 297 297 298 297 298 299 301 299 299 299 299 299 299 299 300 300 300 301 301 301 302 302 302 301 301 302 305 308 316 322 327 334 336 339 338 338
294 295 295 295 295 297 296 296 296 296 297 297 298 300 299 298 298 298 298 298 298 299 300 299 299 300 300 301 302 301 302 301 301 303 304 310 316 319 322 329 336 337 337
296 295 295 295 296 296 295 295 296 296 296 296 297 299 300 299 298 298 297 298 298 299 299 299 299 299 299 300 301 302 301 301 301 302 303 305 312 315 315 319 325 331 336
295 296 295 296 296 295 295 295 296 296 297 296 296 299 299 300 298 297 297 297 297 298 298 298 298 299 298 299 299 300 301 301 301 301 302 302 304 310 313 314 317 321 327
295 295 296 299 296 295 294 295 295 295 295 295 296 298 300 300 299 297 296 296 297 298 298 297 297 296 296 297 297 298 299 300 300 300 301 301 302 303 307 313 315 317 321
295 295 295 295 294 295 294 295 294 295 295 296 296 297 299 299 300 296 296 296 297 297 296 296 296 295 295 295 296 297 298 298 299 300 300 300 301 302 302 306 310 312 318
294 294 294 294 293 295 295 294 294 294 295 296 295 297 298 298 298 296 296 296 296 295 295 295 294 294 294 294 294 294 295 296 298 298 299 300 301 301 302 302 302 304 310
293 293 295 293 294 294 292 292 293 293 294 294 296 298 298 298 298 296 295 295 295 294 293 294 293 291 291 291 290 291 291 294 294 295 297 298 298 300 301 302 302 303 304
293 294 294 295 294 294 294 294 293 292 293 294 296 297 298 297 297 297 295 294 294 293 292 292 292 290 290 290 288 287 286 289 293 294 294 295 295 297 297 298 300 302 304
292 292 294 295 295 294 295 294 293 294 293 294 295 294 296 297 297 296 295 294 293 292 291 291 290 289 288 289 289 288 284 283 287 291 292 293 293 294 295 296 297 298 299
293 292 294 294 294 294 295 293 292 292 291 292 293 294 294 296 295 296 295 293 292 291 290 289 291 289 288 287 289 292 291 289 285 284 289 290 292 293 293 294 295 297 300
292 293 293 293 293 294 294 293 292 291 292 292 292 293 293 294 294 294 294 292 291 290 290 289 289 288 289 288 287 288 289 289 289 286 284 287 290 292 293 294 295 295 297
292 292 291 292 292 293 293 293 292 292 292 291 291 291 291 291 291 292 293 291 290 290 289 289 288 288 288 288 288 288 287 286 285 285 283 283 284 286 289 292 292 292 293

GFSSE_sfc_thetae_276.txt.gz
Theta_e
325 333 344 346 346 345 345 346 345 343 342 341 341 341 341 340 340 340 339 338 337 337 337 338 338 341 342 339 339 340 340 341 340 340 341 341 340 338 337 336 336 334 337
326 331 342 346 346 346 345 344 344 343 343 343 344 344 344 344 343 342 341 340 339 338 337 337 336 337 340 343 341 341 339 340 340 340 341 342 341 340 338 338 336 333 339
323 327 334 342 343 344 344 342 344 344 344 344 343 343 344 344 344 344 344 343 342 341 340 339 338 336 338 341 341 340 338 341 340 338 339 334 332 340 340 339 337 337 340
320 322 328 337 339 340 340 341 341 340 340 341 342 342 341 340 340 341 342 342 343 342 342 343 342 339 339 340 340 340 339 340 339 337 332 332 332 337 340 341 339 337 338
315 319 325 333 334 334 334 335 334 334 336 335 335 335 334 334 334 335 335 336 338 340 342 342 342 342 341 341 340 340 341 340 338 335 329 328 327 331 337 339 339 339 339
312 316 324 328 328 328 328 328 327 326 325 324 323 323 323 323 323 324 325 325 326 328 331 333 336 336 337 339 340 340 341 341 338 331 328 328 329 335 338 339 342 339 338
307 311 315 323 323 323 323 322 322 321 320 319 318 318 318 318 318 318 319 320 320 321 322 323 324 325 328 331 335 337 338 337 334 329 328 327 326 334 337 338 340 340 338
304 308 311 318 320 319 318 318 318 318 317 316 315 315 315 315 315 315 315 315 317 318 319 319 319 320 321 321 322 325 328 330 330 329 328 326 328 334 336 336 339 340 339
302 301 304 308 314 317 316 315 315 314 314 313 313 313 314 314 313 313 313 314 316 317 317 317 318 317 318 318 318 320 322 324 324 328 330 328 329 336 337 336 339 340 339
298 300 299 303 305 304 306 314 314 314 312 311 312 313 313 311 312 312 312 314 314 314 315 315 316 315 315 315 315 315 317 319 320 324 329 329 333 336 338 337 338 339 339
297 297 297 300 301 300 300 306 311 312 312 313 309 311 306 302 303 304 310 312 312 312 313 313 313 313 312 310 311 312 313 307 308 311 319 326 333 336 338 338 339 339 339
293 295 296 296 297 298 303 300 300 303 302 302 301 301 302 301 302 304 304 308 309 310 310 311 311 310 306 301 301 306 302 302 302 304 308 316 319 326 335 336 337 337 339
293 294 295 296 296 296 297 297 297 298 297 299 299 300 300 300 299 299 298 298 298 304 300 302 301 301 300 300 300 299 300 300 300 302 305 311 314 317 323 329 335 339 338
292 294 295 295 295 296 295 296 296 297 295 297 297 300 298 297 297 297 297 297 297 298 298 298 298 299 299 300 300 300 300 299 300 301 302 309 311 314 317 320 324 329 335
292 293 294 294 294 295 295 295 295 295 296 296 296 299 298 297 296 297 296 296 296 297 297 297 297 298 298 299 300 300 300 300 299 301 301 307 309 312 315 317 319 322 327
294 294 295 294 294 295 294 294 294 294 295 295 296 297 299 298 296 296 296 296 296 297 297 297 297 297 297 298 298 299 299 299 300 300 301 301 307 309 312 314 316 318 320
295 296 294 295 294 294 294 294 294 295 296 294 295 297 298 299 297 296 295 295 295 296 297 296 296 297 296 297 296 298 298 298 299 299 300 300 302 306 308 311 313 315 317
295 295 296 298 295 293 293 293 294 295 294 294 295 296 298 299 298 295 295 294 295 296 296 295 295 294 294 294 295 295 296 297 298 298 299 299 300 300 303 307 309 311 313
295 296 296 295 294 294 293 293 293 293 294 294 295 295 298 299 298 295 295 295 296 295 294 294 293 293 292 292 293 293 293 294 295 297 297 298 298 300 300 304 307 308 309
296 296 296 295 294 293 293 292 292 293 293 294 294 296 297 297 297 295 294 294 295 294 293 293 292 292 291 290 292 292 292 293 294 294 295 298 298 298 299 300 300 301 306
294 294 294 293 293 293 291 290 291 291 293 293 294 297 297 297 297 295 294 294 294 293 292 292 292 290 289 290 288 289 289 291 292 292 293 294 294 296 297 297 296 298 300
293 294 294 294 292 294 293 292 292 291 292 293 295 296 297 296 296 295 294 293 293 291 291 290 290 289 289 289 286 286 284 287 291 292 292 292 292 294 294 295 295 295 296
293 293 294 294 293 294 293 293 292 292 292 292 293 294 295 296 296 295 294 293 292 291 289 289 289 288 286 288 288 286 283 282 286 289 291 291 291 291 292 293 294 294 296
293 292 294 294 294 294 294 293 291 290 290 291 292 293 294 295 294 295 294 292 291 290 289 288 290 288 287 285 287 290 288 289 285 283 287 289 291 290 290 290 292 293 294
292 292 294 294 294 294 294 294 291 290 291 291 291 292 292 293 294 293 293 291 290 289 288 288 287 287 287 286 285 285 286 288 288 285 282 284 287 288 289 289 289 289 292
291 292 293 293 293 293 294 292 291 290 291 290 290 290 290 291 291 291 292 290 289 288 288 288 287 287 286 286 286 286 286 286 285 285 284 284 284 286 288 289 288 288 289

GFSSE_sfc_thetae_279.txt.gz
Theta_e
324 335 344 344 345 345 347 346 344 343 341 341 341 341 341 340 340 339 339 338 337 337 336 337 336 339 342 340 337 338 338 339 339 339 340 341 340 339 337 336 335 333 336
327 335 344 347 346 345 345 345 345 343 343 343 343 344 344 344 343 343 341 340 340 338 338 338 337 336 338 342 340 340 338 338 338 339 339 339 340 340 339 338 336 332 337
327 333 341 346 346 345 344 344 344 343 343 344 344 343 343 343 343 344 343 342 342 342 341 341 340 338 336 340 341 341 337 339 340 338 338 332 330 338 339 340 339 337 338
324 328 334 341 343 343 343 343 343 342 342 343 343 340 340 338 338 340 341 339 341 342 342 343 342 342 340 338 339 340 339 339 339 337 330 330 331 336 336 338 340 339 338
319 324 331 338 338 338 338 338 338 338 338 336 336 335 334 332 333 333 334 334 334 336 338 338 338 338 339 340 340 340 340 341 338 335 329 327 326 330 335 337 338 340 339
315 320 329 334 334 334 334 333 331 330 329 327 326 325 324 323 322 322 324 324 324 325 326 327 328 329 332 334 336 338 338 338 338 330 328 328 329 334 336 336 340 341 339
311 316 321 329 329 328 328 327 326 324 323 322 320 320 319 319 318 319 319 319 320 321 321 321 321 322 322 323 323 325 328 327 325 328 327 326 326 335 338 336 337 341 339
309 311 315 322 325 324 323 322 321 320 319 318 317 317 316 316 316 315 315 317 318 318 318 318 319 319 319 319 319 321 321 321 320 322 326 327 330 336 338 338 337 339 340
304 306 308 311 316 320 320 320 318 317 316 315 315 315 314 314 313 313 313 315 315 315 316 317 317 316 316 316 315 315 315 316 312 318 322 327 332 336 339 339 339 338 339
299 300 302 305 307 307 309 316 316 315 314 313 313 313 312 311 311 311 312 313 312 313 314 314 314 314 314 312 312 312 312 309 304 307 310 316 324 331 335 337 338 338 338
297 297 299 301 300 300 301 307 313 315 315 314 311 311 305 301 302 302 309 311 311 311 312 312 312 312 310 307 308 309 308 301 300 303 305 311 315 319 326 331 335 336 337
294 295 297 298 299 297 301 301 299 302 301 301 300 300 300 300 302 302 303 307 307 308 309 310 310 308 304 299 299 303 299 299 299 300 302 310 313 316 319 322 327 331 334
293 294 295 296 297 296 297 297 297 298 297 299 298 299 299 298 297 297 296 296 297 301 298 300 299 298 298 298 298 298 298 298 298 299 302 309 312 314 317 318 319 322 324
292 294 295 294 294 294 295 296 296 297 295 297 296 298 297 296 295 295 295 295 295 296 296 296 296 297 297 298 298 298 298 297 298 299 300 306 309 312 315 317 319 320 321
291 293 294 293 293 294 294 295 294 295 294 296 295 298 297 296 295 295 295 295 295 296 296 295 296 296 296 297 297 297 297 298 298 299 299 304 307 310 313 316 317 319 320
293 293 293 293 293 294 293 293 294 293 294 295 295 296 297 296 295 295 294 295 294 295 295 295 295 295 295 296 296 297 297 297 297 298 299 299 305 307 309 312 314 316 318
294 294 293 293 293 294 293 293 293 294 295 293 294 296 298 298 296 295 294 294 294 295 295 295 295 294 294 295 294 295 296 296 297 297 297 298 299 303 305 309 311 313 315
293 293 294 297 294 293 293 292 293 294 293 293 294 295 297 298 296 294 294 293 294 294 294 293 293 292 292 292 292 292 293 294 294 295 296 296 297 298 301 305 308 310 311
294 294 293 294 294 293 293 293 293 293 293 293 293 294 296 298 297 294 294 293 294 294 293 292 292 291 290 290 291 292 292 292 292 295 294 295 296 297 298 302 304 305 306
294 295 295 295 294 293 292 291 292 292 292 293 293 294 296 296 296 294 293 293 294 292 291 291 291 291 290 289 291 291 290 291 291 291 291 295 295 296 296 297 297 297 301
294 294 295 294 293 293 290 289 290 290 291 292 293 295 296 296 296 294 293 293 293 291 291 291 290 289 288 289 287 287 288 289 290 290 291 291 292 293 293 294 294 295 295
293 294 295 295 293 294 293 291 292 291 291 292 293 295 295 296 295 294 293 292 292 291 290 289 289 287 288 288 285 284 283 285 289 291 290 290 290 291 292 293 292 293 293
293 294 294 294 294 294 294 293 291 291 291 291 292 293 295 295 295 295 293 292 291 290 289 288 288 287 285 286 287 284 282 281 285 288 289 290 289 289 290 290 291 291 292
293 294 294 294 293 294 294 293 291 290 289 290 292 293 294 295 294 294 293 292 291 290 288 288 289 287 286 284 285 289 287 286 281 282 286 287 290 288 289 289 289 290 290
293 293 294 294 293 294 294 294 293 289 290 291 291 292 292 293 293 293 292 291 290 289 288 287 287 286 286 285 284 284 284 285 288 285 282 285 288 289 289 288 288 288 289
292 292 293 293 293 293 294 294 293 291 290 290 290 290 290 291 291 291 292 290 289 288 287 287 287 286 285 285 285 285 284 284 285 285 284 284 284 286 286 287 286 286 287

GFSSE_sfc_thetae_282.txt.gz
Theta_e
320 331 344 345 345 347 347 346 344 343 342 341 340 340 341 340 340 339 339 338 337 336 336 336 336 337 341 342 338 338 338 338 338 338 339 339 339 338 338 337 335 332 336
326 334 343 346 345 347 348 346 345 343 343 343 343 343 343 344 344 342 342 340 339 338 338 338 337 336 337 340 341 339 338 338 338 338 338 337 338 338 339 340 338 332 335
330 337 341 346 346 345 345 345 344 344 344 344 344 344 343 341 343 344 344 342 341 342 342 342 342 340 337 338 339 341 338 338 339 338 337 330 329 337 337 336 340 340 338
329 335 341 344 346 346 344 344 344 344 344 344 343 342 340 337 338 340 339 339 340 342 342 342 342 341 341 341 340 339 340 340 340 337 329 328 329 334 335 334 336 338 340
325 331 337 342 344 344 343 343 342 342 341 340 339 338 335 334 334 333 332 331 331 333 335 334 334 335 336 336 337 338 339 339 337 335 328 326 325 330 336 336 336 338 340
321 327 336 339 340 339 339 339 339 336 334 333 332 330 328 325 324 326 324 324 324 325 326 325 325 325 325 326 327 329 330 329 328 324 326 327 329 334 338 338 337 339 339
316 321 329 336 337 337 336 335 333 331 328 326 325 323 322 321 321 320 319 320 320 320 320 321 321 321 321 321 322 323 322 321 318 318 322 325 326 336 339 339 338 338 339
313 316 321 327 331 331 331 329 327 325 323 321 321 320 319 318 318 316 317 318 318 318 318 319 319 319 318 318 317 317 316 316 312 313 316 321 328 334 338 338 338 339 338
309 311 312 315 320 324 325 324 323 320 319 318 317 317 316 314 315 314 315 316 315 316 317 317 316 316 315 314 313 313 313 312 301 304 307 310 320 326 333 334 335 337 338
303 306 307 308 310 310 312 319 319 319 317 316 316 315 315 313 312 312 312 312 313 313 314 314 314 313 312 310 311 311 310 307 299 300 302 305 314 317 320 325 330 333 336
298 299 302 304 304 304 305 310 315 317 316 314 312 312 306 300 300 302 310 310 311 311 311 312 312 310 308 306 307 308 306 299 298 299 300 308 313 316 319 320 322 326 330
294 295 298 299 298 298 303 303 302 304 302 300 299 299 299 299 301 301 304 306 308 307 309 309 308 306 302 297 297 301 298 297 298 298 300 308 312 315 317 318 319 321 322
294 295 296 297 296 295 296 298 296 297 297 298 297 298 298 297 296 296 295 295 296 300 297 298 297 297 296 296 296 296 296 296 296 297 300 307 310 313 316 317 318 320 321
293 295 295 296 296 295 294 295 295 296 295 296 296 297 296 295 294 294 294 294 294 295 294 294 295 296 296 296 296 296 296 295 296 297 298 304 307 311 314 316 318 319 320
292 294 294 293 294 294 293 294 294 295 294 296 295 297 296 294 294 294 294 294 293 294 294 294 294 295 294 295 295 295 295 295 295 296 296 302 305 309 312 314 316 317 318
294 293 294 293 293 293 292 293 293 294 294 294 294 296 296 295 294 294 293 293 293 294 294 294 294 293 293 294 294 294 294 294 295 295 296 297 303 306 308 311 313 315 316
294 294 293 294 293 293 292 292 293 293 294 293 294 295 296 296 295 294 293 292 293 294 294 293 293 293 292 293 292 293 293 294 294 294 295 295 297 301 304 308 310 311 313
293 293 294 297 294 292 292 292 293 293 293 293 293 295 296 297 295 293 293 292 293 293 293 292 291 291 291 290 290 290 291 291 292 292 293 294 294 296 299 304 305 306 308
294 294 293 294 293 293 292 292 293 292 292 293 293 294 295 297 296 294 293 293 293 292 291 291 291 290 289 289 290 290 290 290 290 293 291 292 293 295 295 299 301 301 303
294 294 295 295 295 293 292 291 291 291 291 292 293 294 296 296 295 294 292 293 293 291 290 290 290 289 289 288 290 290 288 289 289 289 289 293 292 293 293 293 293 294 299
294 294 294 294 294 293 291 290 289 289 290 291 293 294 296 295 295 293 292 292 292 290 290 290 289 288 287 288 286 286 287 288 288 289 290 289 290 291 291 292 292 292 293
293 294 294 294 294 294 294 290 291 291 290 292 293 294 295 295 295 294 292 292 291 290 289 289 288 287 287 287 284 283 282 284 287 289 288 289 289 290 290 291 290 291 290
293 294 294 294 294 294 294 292 291 292 291 291 292 293 294 295 295 294 293 292 291 290 288 288 287 286 285 286 286 284 280 280 283 286 287 288 288 288 287 289 289 289 290
293 295 295 295 294 294 293 293 291 291 290 291 291 292 293 295 294 294 293 292 291 290 288 287 288 286 285 283 284 289 286 284 281 280 285 286 288 289 287 287 288 288 288
294 294 295 295 294 294 294 294 293 291 290 289 290 292 292 293 293 293 293 291 290 289 288 287 286 286 285 284 283 283 283 284 285 283 281 283 287 287 288 287 287 287 287
292 293 294 294 293 294 293 294 293 292 289 289 289 291 291 291 291 292 292 290 290 289 287 287 286 286 285 285 284 284 283 282 282 282 282 283 284 285 286 286 285 285 286

GFSSE_sfc_thetae_285.txt.gz
Theta_e
322 332 344 345 346 347 348 346 345 344 343 343 342 342 341 341 341 340 339 338 337 337 337 337 337 337 340 342 339 339 338 339 338 338 339 340 340 339 338 338 337 335 335
326 336 342 346 346 348 349 347 345 344 343 343 343 344 344 343 343 343 342 341 340 339 339 339 338 337 338 339 341 339 339 338 338 338 338 338 338 339 340 339 340 338 338
333 337 341 345 347 349 349 348 346 345 344 345 346 345 344 343 344 344 344 343 342 342 342 342 342 342 339 339 339 341 339 338 338 338 337 335 335 336 336 336 338 337 340
335 338 341 343 346 347 348 347 345 345 345 345 345 343 341 339 341 341 341 339 340 341 341 342 341 340 339 340 340 341 341 340 339 338 336 334 332 333 336 337 336 337 339
334 339 342 343 346 346 346 346 346 346 346 344 343 340 338 337 337 335 333 332 333 334 334 334 333 333 332 333 334 335 335 333 332 333 336 335 335 333 337 338 338 338 340
330 334 340 343 345 346 346 346 344 343 342 340 338 336 332 330 330 327 327 327 327 328 327 327 326 326 325 325 326 327 327 325 324 327 328 331 334 335 339 338 338 340 340
327 331 336 339 341 342 342 341 339 337 336 335 332 329 326 325 325 323 323 323 323 323 323 323 322 322 322 322 322 320 319 318 316 317 320 324 328 333 337 338 338 339 339
325 326 332 332 336 338 338 337 335 333 331 329 326 325 323 322 320 320 321 320 320 320 321 320 319 318 317 316 316 315 315 313 309 309 311 313 315 323 331 333 335 337 337
321 322 324 327 329 329 331 331 330 328 326 324 323 321 319 318 317 317 318 318 318 318 319 317 317 315 313 312 312 312 312 310 306 307 306 308 313 317 320 322 327 331 333
313 316 318 319 321 321 322 323 323 323 322 322 320 319 317 316 314 315 314 315 316 315 315 315 314 312 310 310 309 309 308 305 305 306 307 307 313 316 319 321 321 323 326
307 310 312 313 314 314 315 316 318 319 319 318 317 315 308 306 307 310 313 312 313 313 313 313 311 309 306 305 306 307 304 305 304 305 306 307 312 316 318 319 320 321 322
302 304 308 309 309 309 310 312 312 313 311 309 308 305 304 304 304 306 308 309 309 309 310 309 307 305 302 304 304 303 304 303 304 304 305 307 311 314 317 318 319 320 321
302 301 302 305 305 304 306 306 305 306 304 303 303 303 303 303 303 302 302 302 303 302 302 302 302 303 302 302 302 302 302 302 303 303 303 306 309 312 315 317 318 319 320
298 299 300 302 301 300 302 302 302 302 302 301 302 302 302 301 301 300 301 301 301 302 301 302 302 302 301 300 300 301 300 301 302 302 302 303 306 310 313 316 317 318 319
297 298 299 300 299 299 299 300 300 301 301 302 301 302 301 300 300 300 300 300 300 301 301 301 301 300 300 300 299 299 299 300 300 301 302 301 304 308 311 313 315 316 317
298 298 298 298 300 298 298 299 299 300 300 301 300 301 301 300 300 300 299 299 300 300 301 301 300 299 299 298 298 298 298 299 299 299 300 302 302 304 307 310 312 313 314
298 298 297 298 298 298 298 298 298 299 298 299 299 301 301 300 300 299 299 298 299 300 299 299 299 299 299 297 297 297 298 298 298 298 299 300 301 301 304 306 307 309 310
298 296 297 298 297 297 297 297 297 298 298 298 298 299 300 300 300 299 298 298 299 299 298 298 297 297 297 296 296 296 296 296 296 297 298 299 300 301 300 302 303 304 305
296 296 296 298 296 296 296 296 297 297 297 297 297 299 300 300 299 299 298 298 298 297 297 297 296 295 294 294 294 295 296 295 296 296 297 297 299 298 299 298 299 299 301
296 296 297 297 297 296 295 295 296 296 296 296 297 298 299 300 299 298 297 297 297 296 295 295 295 294 294 293 291 293 294 295 296 296 297 297 296 297 298 298 298 297 298
295 295 296 296 296 295 294 293 294 294 295 295 296 298 299 300 298 297 297 296 296 296 295 294 294 293 292 292 291 293 294 294 296 296 295 295 296 297 297 296 296 296 295
294 295 296 296 296 296 296 296 295 294 294 296 296 297 299 299 298 297 296 296 295 294 293 293 292 291 291 291 289 289 289 292 294 293 295 294 295 296 295 295 295 294 294
295 295 296 296 296 296 297 294 293 294 294 294 295 296 297 298 298 298 296 296 295 295 293 292 292 291 290 290 290 289 288 287 287 292 292 293 294 294 294 294 293 293 292
295 296 297 296 296 296 296 295 294 294 293 294 295 296 297 298 297 297 296 295 294 294 293 292 292 291 290 288 289 291 290 289 287 286 291 293 293 292 293 293 292 292 291
295 296 296 296 296 296 295 296 295 295 296 294 294 295 296 296 297 296 296 295 294 293 293 292 291 290 290 289 288 288 288 289 289 286 284 287 290 292 292 291 291 291 291
294 295 296 295 295 295 295 295 295 294 293 293 293 294 294 295 295 296 295 294 294 293 292 291 291 290 289 289 289 288 288 287 287 286 285 286 286 289 290 290 290 290 290

GFSSE_sfc_thetae_288.txt.gz
Theta_e
331 338 345 347 345 347 349 346 345 344 343 343 342 342 342 340 339 338 338 338 337 337 337 337 336 340 341 342 340 339 339 339 338 338 338 339 341 340 339 339 339 332 337
333 340 343 346 347 348 350 348 347 345 344 344 343 343 343 342 342 341 341 340 339 339 339 339 338 338 339 341 341 340 338 338 337 336 337 337 337 337 336 336 335 334 338
331 341 343 345 348 349 349 348 347 345 344 344 344 344 345 345 345 345 343 342 342 342 342 343 342 342 340 340 340 341 338 338 338 336 334 337 336 334 335 336 336 336 338
335 341 341 343 347 349 349 347 347 345 344 346 347 345 343 344 344 345 343 341 343 343 343 343 342 340 339 339 339 340 339 336 335 336 338 337 336 332 335 337 338 337 337
338 341 342 342 347 349 349 348 347 346 347 346 345 343 341 341 340 339 338 337 337 337 336 336 335 334 332 332 333 333 333 332 329 333 337 337 338 335 337 338 338 338 339
339 342 341 343 346 348 348 347 347 346 347 345 343 340 339 337 334 333 332 332 332 332 331 330 329 327 326 327 328 326 324 323 324 333 334 335 336 335 337 338 339 340 340
338 341 341 342 345 346 346 346 346 345 343 341 339 336 333 332 329 328 327 327 326 326 326 325 325 323 323 322 320 320 317 315 319 321 322 324 327 323 331 335 335 338 338
336 339 340 336 338 341 342 342 341 339 338 337 334 331 329 328 325 325 324 323 323 323 323 322 320 319 317 316 315 314 313 312 311 312 313 314 313 318 321 324 328 331 333
336 333 335 337 335 333 335 336 336 336 335 333 330 327 326 323 322 322 321 320 321 322 319 319 317 315 313 313 312 312 310 309 310 311 309 311 314 317 319 321 322 323 326
332 330 331 332 334 335 332 328 329 329 329 328 326 323 321 320 320 320 320 319 319 318 317 316 314 312 310 310 310 309 307 306 309 310 311 311 312 316 319 320 321 322 322
329 330 329 328 330 332 332 325 322 323 323 322 320 318 316 314 314 313 316 316 316 316 315 314 311 309 306 306 307 306 305 310 309 310 310 308 312 315 317 319 320 321 321
323 327 329 329 329 328 324 323 323 320 319 318 317 314 311 310 311 311 312 313 312 313 312 310 308 305 305 309 310 306 309 309 309 309 309 307 311 314 316 317 319 320 321
320 321 323 325 324 322 319 320 318 317 317 315 313 311 310 309 309 309 309 308 308 307 307 307 307 309 307 308 308 308 307 307 309 309 307 305 309 312 315 316 317 318 319
316 316 317 319 318 317 315 315 314 312 311 309 309 309 309 309 308 307 307 307 308 308 307 308 308 308 307 306 306 306 306 306 307 308 307 303 306 311 313 315 316 317 317
312 313 313 314 314 312 311 311 310 309 308 308 308 308 308 307 307 307 307 307 307 307 307 307 307 306 306 306 305 305 304 305 306 307 308 301 304 308 310 312 313 314 315
310 310 311 310 310 309 308 308 307 308 308 308 308 308 308 308 307 306 306 306 306 306 306 307 306 306 306 305 304 304 304 304 305 304 306 306 302 304 307 309 309 311 312
309 310 308 308 308 306 305 306 306 307 307 307 307 308 307 307 307 306 306 305 305 306 305 305 304 305 305 304 303 303 303 303 303 303 305 306 306 302 303 304 306 307 308
309 308 308 305 305 304 304 305 305 306 306 307 306 307 307 306 306 306 305 304 305 305 304 304 304 303 303 303 303 303 303 302 302 302 303 304 305 304 302 301 302 302 305
307 307 307 305 304 304 304 304 305 305 305 305 305 305 306 306 306 305 305 305 304 304 303 302 302 302 302 302 300 301 302 301 302 300 302 302 302 303 304 300 298 298 301
305 306 306 305 305 305 305 304 304 304 304 304 304 304 306 305 305 305 303 303 303 303 302 301 301 300 300 299 297 298 300 301 302 301 302 301 301 302 302 302 302 301 299
304 303 304 304 305 303 303 302 302 301 301 302 303 304 305 305 304 304 304 303 303 302 301 301 300 298 299 298 299 300 299 299 300 300 301 301 300 301 300 300 300 300 299
303 302 303 303 303 303 302 302 301 301 301 303 303 303 303 304 304 304 303 302 302 300 300 299 299 297 298 297 297 296 296 297 298 298 300 299 300 299 299 299 299 298 297
302 302 301 302 302 301 301 302 301 302 301 300 300 300 302 304 305 303 302 302 301 301 299 298 298 298 296 295 295 296 294 293 293 298 297 298 298 298 298 299 298 297 296
301 303 302 302 302 302 302 301 298 297 296 298 299 300 302 303 303 302 302 301 300 299 298 298 298 298 297 294 295 294 295 294 292 291 296 297 297 296 297 298 297 296 295
302 302 302 302 302 301 301 301 299 299 299 300 299 301 301 302 302 301 301 301 299 298 299 297 297 296 296 295 294 293 293 293 294 292 290 293 295 297 297 297 296 296 295
301 303 303 302 301 301 301 301 300 299 299 298 299 300 300 301 301 301 300 299 299 298 298 298 297 296 295 294 294 293 293 293 292 291 290 291 290 294 295 295 295 294 294

GFSSE_sfc_thetae_291.txt.gz
Theta_e
334 339 344 348 347 347 347 346 345 345 343 342 342 341 340 339 339 338 338 338 338 338 337 337 340 342 343 341 340 339 339 339 338 338 339 341 341 341 340 338 338 332 337
335 341 344 347 348 349 349 347 346 345 344 343 343 343 342 341 340 340 339 339 339 339 339 339 338 339 340 342 341 340 339 338 337 336 335 339 339 337 336 336 336 334 337
334 340 344 345 347 349 349 347 347 345 344 344 344 343 343 343 343 343 342 341 341 341 342 342 341 340 340 340 342 341 339 339 337 335 334 336 336 335 335 337 337 337 337
334 340 341 343 346 348 349 347 347 346 345 345 344 344 345 345 345 346 344 343 344 344 344 345 343 342 341 340 340 339 337 335 335 336 337 336 335 335 335 338 338 338 338
334 340 339 343 347 349 349 347 347 346 346 345 346 346 344 344 344 344 342 341 342 341 341 339 338 336 335 335 334 334 333 332 330 333 336 336 336 337 337 338 339 339 340
336 340 340 343 347 349 348 347 347 346 347 347 346 344 342 341 339 338 337 337 336 336 335 334 333 330 329 329 329 326 324 323 326 334 334 335 334 333 335 336 337 339 340
337 340 342 341 345 348 348 348 347 347 347 347 343 341 340 337 335 334 333 332 332 331 330 329 327 326 326 323 321 320 317 316 317 322 322 322 322 321 324 328 332 333 335
338 340 342 337 340 344 345 346 345 345 345 342 340 338 336 333 331 330 329 328 327 326 326 325 323 321 319 318 316 314 312 312 310 312 313 313 315 317 319 320 322 324 326
339 340 341 342 340 335 338 339 340 340 340 339 336 333 332 330 328 327 325 324 324 325 322 321 319 316 315 314 313 311 309 309 310 310 309 310 315 317 319 320 321 322 323
337 338 339 341 340 339 337 331 332 333 334 334 332 328 326 324 325 324 323 323 322 321 320 318 316 313 312 311 310 309 308 309 310 309 310 311 313 317 319 320 320 321 322
334 335 337 338 338 337 335 329 326 327 328 327 325 321 318 319 318 317 318 321 320 318 318 316 313 310 308 308 307 306 306 310 309 309 310 311 312 316 318 319 320 320 321
330 330 333 333 333 333 331 326 326 324 325 325 322 319 318 315 315 313 314 317 317 317 316 313 310 307 305 309 309 307 309 309 309 309 309 309 311 314 316 318 319 319 320
330 331 330 330 331 331 331 329 328 326 326 324 321 318 315 312 312 312 312 311 312 312 310 309 307 309 309 309 308 308 308 308 308 308 307 306 309 313 316 317 318 319 319
325 329 332 331 330 331 331 326 326 323 322 320 319 316 313 311 311 311 309 309 311 308 309 309 309 309 308 307 307 307 307 307 307 308 305 305 308 312 315 315 315 316 316
321 324 327 331 331 330 326 323 321 318 317 315 314 312 311 311 311 310 310 309 309 309 309 308 308 307 307 307 306 306 306 306 307 307 308 304 305 309 311 312 312 314 314
320 321 323 324 327 324 321 318 316 314 312 311 311 311 311 311 311 309 309 309 309 309 309 308 307 307 307 306 306 305 305 306 306 305 306 304 305 305 307 308 310 311 311
319 319 319 320 321 319 316 314 312 311 309 309 310 311 310 310 310 309 309 308 308 308 308 307 306 306 306 305 305 305 305 305 304 303 305 306 304 303 302 304 306 307 308
317 317 316 315 316 316 312 311 309 309 309 309 310 310 310 309 309 309 308 308 308 307 306 306 305 305 305 304 304 305 304 304 303 303 304 305 304 304 303 303 302 303 304
314 315 314 315 313 313 310 308 308 308 308 308 309 309 309 309 309 308 307 307 308 307 305 304 304 304 303 303 303 303 305 304 303 302 303 303 303 303 304 302 301 301 301
313 313 314 313 311 311 308 306 307 306 307 308 308 308 308 307 307 307 307 307 306 305 305 304 304 302 303 301 298 299 303 303 303 303 302 301 301 302 303 303 304 302 301
311 311 312 311 310 308 304 302 303 302 305 306 307 307 307 307 307 306 305 305 305 305 304 304 303 301 301 300 299 302 301 301 301 302 302 302 302 301 301 302 302 301 300
309 310 310 310 308 307 304 303 303 303 304 305 305 305 306 306 305 305 305 305 303 304 303 302 301 299 300 298 299 300 298 298 300 300 301 300 301 302 300 301 301 300 300
307 308 307 308 307 306 305 304 304 304 303 302 303 303 304 305 305 305 305 304 303 303 301 301 301 300 298 297 298 297 296 296 296 299 298 299 299 300 300 300 300 300 299
306 308 308 307 306 306 305 303 301 299 298 299 301 301 302 305 305 305 305 304 302 302 301 302 300 300 301 296 297 295 297 297 295 294 298 298 299 298 299 299 299 299 298
305 306 306 306 305 305 304 304 302 300 300 300 300 300 301 303 305 304 303 302 302 301 301 301 299 299 299 299 297 295 295 295 295 293 292 295 297 299 299 298 298 298 297
304 306 307 304 304 304 303 303 302 300 299 299 299 299 300 302 303 303 302 302 302 301 300 299 299 299 298 298 297 296 295 293 292 292 292 293 292 294 297 297 297 297 296

GFSSE_sfc_thetae_297.txt.gz
Theta_e
332 340 347 349 349 349 348 348 348 348 346 344 342 340 339 339 340 339 340 342 342 342 347 346 345 343 342 340 340 341 341 341 341 341 342 342 342 339 338 338 339 335 340
337 342 345 348 349 349 349 348 348 348 345 343 342 341 339 339 339 339 339 340 341 340 342 344 343 345 343 341 340 340 339 338 338 339 341 342 341 339 339 339 341 336 337
338 342 344 346 348 349 348 347 347 347 345 343 343 342 341 341 340 340 340 340 341 341 341 341 341 341 342 342 340 340 340 338 337 336 336 333 333 338 339 339 339 339 339
337 341 343 344 346 348 348 347 347 347 346 344 344 343 343 342 342 342 341 341 342 343 343 344 344 342 342 342 341 338 337 336 335 336 332 334 334 339 339 338 339 340 339
336 340 343 343 346 348 348 347 347 347 347 346 345 344 344 344 344 344 344 343 343 344 345 345 345 342 340 337 337 336 334 332 332 330 327 330 334 338 338 335 336 336 338
335 338 341 344 347 348 348 347 347 347 347 347 346 347 345 346 347 347 345 345 345 345 345 342 340 339 337 336 335 330 326 324 324 314 316 322 321 330 329 329 331 333 334
334 337 339 342 346 347 347 347 347 346 347 347 347 347 347 346 345 345 343 342 341 341 340 338 335 334 333 330 326 322 317 315 311 305 309 311 314 323 322 322 322 323 325
333 335 340 337 340 344 346 346 345 345 345 346 346 346 345 342 341 340 340 340 338 337 336 333 331 330 326 323 320 315 311 310 307 302 307 309 319 320 320 320 321 322 323
332 335 338 339 339 336 340 341 342 342 343 344 345 344 341 339 339 338 337 336 335 334 332 329 327 323 321 318 315 311 309 309 300 302 309 308 319 318 319 320 321 321 322
332 334 335 336 339 340 341 334 336 338 340 341 339 336 332 332 332 332 330 332 331 330 328 325 322 319 317 316 312 309 308 310 301 303 307 309 316 318 319 320 320 321 322
329 333 333 334 336 338 341 336 332 333 334 334 332 327 325 324 324 322 321 327 330 327 324 321 318 316 314 312 310 309 310 302 300 304 306 315 315 317 319 319 320 321 322
325 329 333 333 335 336 339 337 336 336 336 334 329 325 323 319 316 316 315 322 325 323 322 319 316 313 312 302 302 309 301 301 300 303 305 313 314 317 319 319 320 321 321
324 330 332 333 334 334 336 333 333 334 331 327 324 320 319 314 312 309 310 311 311 314 311 311 307 303 300 300 301 300 300 299 299 302 308 312 314 317 320 320 320 319 319
322 329 330 334 334 333 332 331 330 328 326 323 321 319 316 309 306 307 306 305 306 306 305 303 300 299 300 301 300 299 299 298 298 301 306 312 314 317 319 318 317 317 316
321 326 329 332 333 332 328 329 326 327 324 322 319 318 314 307 306 306 305 304 304 304 302 300 300 300 300 300 300 299 299 299 299 300 300 310 313 315 316 315 316 315 314
319 324 328 330 331 330 327 328 326 326 324 321 318 317 311 307 306 305 303 303 302 302 301 300 300 299 299 300 299 299 299 299 299 299 299 304 312 312 311 312 313 312 311
316 321 326 328 329 329 328 327 327 326 324 319 317 315 310 306 305 304 303 302 302 302 301 300 300 299 299 299 299 299 299 298 298 298 299 301 304 309 306 309 310 307 307
312 315 326 328 327 327 328 326 326 322 319 316 313 312 308 306 305 302 302 301 301 301 301 299 298 298 298 297 296 297 298 299 297 297 299 300 299 301 305 308 305 303 304
311 313 320 326 326 326 327 327 322 315 315 310 308 308 306 306 305 303 302 301 301 300 300 300 298 297 296 295 296 296 296 296 296 299 297 298 298 298 299 306 305 303 302
306 310 317 325 326 326 326 321 314 310 310 307 306 306 305 305 305 303 302 302 302 300 300 299 297 296 296 296 295 294 295 295 296 295 296 298 297 297 298 298 297 297 303
306 307 313 319 323 324 318 310 307 306 304 304 304 305 305 305 304 303 303 302 302 300 300 299 297 295 294 294 294 293 293 294 295 295 295 295 296 296 295 295 295 294 295
304 305 309 315 318 320 316 314 310 307 304 304 304 304 305 304 304 304 303 302 301 299 299 298 296 294 295 294 292 291 289 291 294 295 294 295 294 295 295 295 295 294 294
299 300 307 312 314 317 316 312 304 301 300 299 301 303 304 304 304 303 303 301 301 301 299 298 297 296 292 292 292 293 289 289 291 293 293 294 293 293 293 293 294 294 294
297 300 305 310 311 314 312 307 304 302 300 301 302 303 303 304 303 303 303 302 301 301 299 299 298 296 293 291 292 294 292 292 288 288 291 292 292 293 292 292 292 293 293
292 298 303 307 309 310 308 306 304 302 303 302 302 302 302 302 303 302 302 301 300 299 299 298 297 296 294 292 291 291 290 290 290 289 287 289 291 292 292 291 291 291 292
291 294 297 302 306 307 306 304 303 301 301 300 300 300 301 301 301 301 301 300 299 299 298 297 297 295 294 293 293 292 290 288 288 288 287 287 288 289 290 290 290 290 290